Location: Rometta
(44.2000°N, 10.0500°E)
Time: 12:18:46
(UTC+00:00)

Cosmos 2263 Rocket - Pass Details

Date: 20 January 2021
Orbit: 825 x 847 km, 71.0° (Epoch: 06 March)

Event Time Altitude Azimuth Distance (km) Brightness Sun altitude
Rises 17:13:26 0° 222° (SW) 3,396 6.5 -10.7°
Reaches altitude 10° 17:15:59 10° 228° (SW) 2,463 5.8 -11.2°
Maximum altitude 17:21:24 46° 301° (WNW) 1,118 3.2 -12.1°
Drops below altitude 10° 17:26:52 10° 15° (NNE) 2,468 4.3 -13.1°
Enters shadow 17:29:06 - 21° (NNE) 3,286 4.9 -13.4°
